Location: ??????
(38.3184°N, 23.6932°E)
Time: 01:51:25
(UTC+00:00)

SL-16 R/B - Pass Details

Date: 16 October 2021
Orbit: 842 x 846 km, 71.0° (Epoch: 04 December)

Event Time Altitude Azimuth Distance (km) Brightness Sun altitude
Rises 16:20:06 0° 146° (SE) 3,385 5.1 -7.5°
Reaches altitude 10° 16:24:31 10° 113° (ESE) 2,458 4.1 -8.3°
Maximum altitude 16:26:09 11° 96° (E) 2,370 3.9 -8.7°
Enters shadow 16:27:07 11° 86° (E) 2,403 3.9 -8.9°
